TimeCDT,TemperatureF,Dew PointF,Humidity,Sea Level PressureIn,VisibilityMPH,Wind Direction,Wind SpeedMPH,Gust SpeedMPH,PrecipitationIn,Events,Conditions,WindDirDegrees,DateUTC
12:53 AM,79.0,70.0,74,29.93,10.0,Calm,Calm,-,N/A,,Partly Cloudy,0,2013-09-13 05:53:00
1:53 AM,79.0,71.1,77,29.92,10.0,Calm,Calm,-,N/A,,Overcast,0,2013-09-13 06:53:00
2:53 AM,77.0,71.1,82,29.92,10.0,Calm,Calm,-,N/A,,Clear,0,2013-09-13 07:53:00
3:53 AM,77.0,71.1,82,29.90,10.0,NW,3.5,-,N/A,,Mostly Cloudy,310,2013-09-13 08:53:00
4:53 AM,73.9,70.0,87,29.90,10.0,Calm,Calm,-,N/A,,Clear,0,2013-09-13 09:53:00
5:53 AM,73.9,70.0,87,29.90,10.0,Calm,Calm,-,N/A,,Clear,0,2013-09-13 10:53:00
6:53 AM,73.0,69.1,87,29.90,10.0,Calm,Calm,-,N/A,,Clear,0,2013-09-13 11:53:00
7:53 AM,73.0,70.0,90,29.91,9.0,Calm,Calm,-,N/A,,Clear,0,2013-09-13 12:53:00
8:53 AM,82.0,71.1,69,29.90,10.0,North,4.6,-,N/A,,Clear,360,2013-09-13 13:53:00
9:53 AM,86.0,66.0,51,29.91,10.0,ENE,3.5,-,N/A,,Clear,70,2013-09-13 14:53:00
10:53 AM,89.1,63.0,42,29.91,10.0,Variable,6.9,-,N/A,,Clear,0,2013-09-13 15:53:00
11:53 AM,93.0,61.0,34,29.89,10.0,ENE,10.4,16.1,N/A,,Clear,70,2013-09-13 16:53:00
12:53 PM,95.0,57.9,29,29.87,10.0,ENE,16.1,26.5,N/A,,Clear,70,2013-09-13 17:53:00
1:53 PM,97.0,59.0,28,29.85,10.0,East,11.5,-,N/A,,Mostly Cloudy,90,2013-09-13 18:53:00
2:53 PM,97.0,55.9,25,29.82,10.0,SE,12.7,18.4,N/A,,Scattered Clouds,130,2013-09-13 19:53:00
3:53 PM,97.0,55.0,24,29.79,10.0,ESE,13.8,21.9,N/A,,Clear,110,2013-09-13 20:53:00
4:53 PM,97.0,55.0,24,29.78,10.0,ESE,11.5,21.9,N/A,,Partly Cloudy,120,2013-09-13 21:53:00
5:53 PM,96.1,55.9,26,29.77,10.0,ESE,10.4,-,N/A,,Clear,110,2013-09-13 22:53:00
6:53 PM,93.0,57.0,30,29.78,10.0,SE,10.4,-,N/A,,Clear,130,2013-09-13 23:53:00
7:53 PM,88.0,60.1,39,29.79,10.0,SSE,4.6,-,N/A,,Clear,150,2013-09-14 00:53:00
8:53 PM,84.9,62.1,46,29.80,10.0,Calm,Calm,-,N/A,,Clear,0,2013-09-14 01:53:00
9:53 PM,82.9,64.0,53,29.82,10.0,SE,8.1,-,N/A,,Clear,140,2013-09-14 02:53:00
10:53 PM,82.0,66.0,58,29.84,10.0,SSE,5.8,-,N/A,,Clear,150,2013-09-14 03:53:00
11:53 PM,80.1,66.0,62,29.84,10.0,Calm,Calm,-,N/A,,Clear,0,2013-09-14 04:53:00